Time,TemperatureF,DewpointF,PressureIn,WindDirection,WindDirectionDegrees,WindSpeedMPH,WindSpeedGustMPH,Humidity,HourlyPrecipIn,Conditions,Clouds,dailyrainin,SoftwareType,DateUTC
2013-02-09 00:02:00,26.0,22.0,30.32,WNW,302,0.0,0.0,84,0.00,,,0.02,,2013-02-09 05:02:00,
2013-02-09 00:12:00,26.0,22.0,30.32,WNW,302,0.0,0.0,84,0.00,,,0.02,,2013-02-09 05:12:00,
2013-02-09 00:22:00,25.0,21.0,30.34,WNW,302,2.0,2.0,85,0.00,,,0.01,,2013-02-09 05:22:00,
2013-02-09 00:32:00,26.0,21.0,30.34,WNW,302,1.0,2.0,82,0.00,,,0.01,,2013-02-09 05:32:00,
2013-02-09 00:42:00,26.0,21.0,30.34,WNW,302,1.0,2.0,82,0.00,,,0.01,,2013-02-09 05:42:00,
2013-02-09 00:52:00,26.0,22.0,30.34,WNW,302,0.0,0.0,83,0.00,,,0.01,,2013-02-09 05:52:00,
2013-02-09 01:02:00,25.0,21.0,30.34,WNW,302,0.0,0.0,85,0.00,,,0.01,,2013-02-09 06:02:00,
2013-02-09 01:11:00,25.0,21.0,30.34,WNW,302,0.0,0.0,85,0.00,,,0.01,,2013-02-09 06:11:00,
2013-02-09 01:21:00,24.0,21.0,30.34,WNW,302,0.0,0.0,87,0.00,,,0.01,,2013-02-09 06:21:00,
2013-02-09 01:32:00,24.0,21.0,30.33,WNW,302,0.0,0.0,89,0.00,,,0.01,,2013-02-09 06:32:00,
2013-02-09 01:42:00,24.0,21.0,30.33,WNW,302,0.0,0.0,89,0.00,,,0.01,,2013-02-09 06:42:00,
2013-02-09 01:52:00,24.0,21.0,30.34,WNW,302,0.0,0.0,89,0.00,,,0.01,,2013-02-09 06:52:00,
2013-02-09 02:01:00,24.0,21.0,30.34,WNW,302,0.0,0.0,89,0.00,,,0.01,,2013-02-09 07:01:00,
2013-02-09 02:11:00,24.0,21.0,30.34,WNW,302,0.0,0.0,89,0.00,,,0.01,,2013-02-09 07:11:00,
2013-02-09 02:21:00,23.0,20.0,30.34,WNW,302,0.0,0.0,89,0.00,,,0.01,,2013-02-09 07:21:00,
2013-02-09 02:31:00,23.0,20.0,30.35,WNW,302,0.0,0.0,89,0.00,,,0.01,,2013-02-09 07:31:00,
2013-02-09 02:42:00,23.0,20.0,30.35,WNW,302,0.0,0.0,89,0.00,,,0.01,,2013-02-09 07:42:00,
2013-02-09 02:52:00,23.0,21.0,30.35,WNW,302,0.0,1.0,90,0.00,,,0.01,,2013-02-09 07:52:00,
2013-02-09 03:01:00,23.0,21.0,30.36,WNW,302,0.0,0.0,91,0.00,,,0.01,,2013-02-09 08:01:00,
2013-02-09 03:11:00,23.0,21.0,30.36,WNW,302,0.0,0.0,91,0.00,,,0.01,,2013-02-09 08:11:00,
2013-02-09 03:21:00,23.0,21.0,30.36,WNW,302,0.0,0.0,91,0.00,,,0.00,,2013-02-09 08:21:00,
2013-02-09 03:32:00,22.0,20.0,30.35,WNW,302,0.0,0.0,91,0.00,,,0.00,,2013-02-09 08:32:00,
2013-02-09 03:42:00,22.0,20.0,30.35,WNW,302,0.0,0.0,91,0.00,,,0.00,,2013-02-09 08:42:00,
2013-02-09 03:52:00,22.0,20.0,30.35,WNW,302,0.0,0.0,92,0.00,,,0.00,,2013-02-09 08:52:00,
2013-02-09 04:03:00,22.0,20.0,30.35,WNW,302,0.0,0.0,92,0.00,,,0.00,,2013-02-09 09:03:00,
2013-02-09 04:11:00,22.0,20.0,30.35,WNW,302,0.0,0.0,92,0.00,,,0.00,,2013-02-09 09:11:00,
2013-02-09 04:22:00,21.0,19.0,30.34,WNW,302,0.0,1.0,92,0.00,,,0.00,,2013-02-09 09:22:00,
2013-02-09 04:32:00,20.0,18.0,30.34,WNW,302,0.0,0.0,92,0.00,,,0.00,,2013-02-09 09:32:00,
2013-02-09 04:42:00,20.0,18.0,30.34,WNW,302,0.0,0.0,92,0.00,,,0.00,,2013-02-09 09:42:00,
2013-02-09 04:52:00,20.0,18.0,30.35,WNW,302,0.0,0.0,93,0.00,,,0.00,,2013-02-09 09:52:00,
2013-02-09 05:01:00,20.0,18.0,30.36,WNW,302,0.0,0.0,93,0.00,,,0.00,,2013-02-09 10:01:00,
2013-02-09 05:11:00,20.0,18.0,30.36,WNW,302,0.0,0.0,93,0.00,,,0.00,,2013-02-09 10:11:00,
2013-02-09 05:21:00,20.0,18.0,30.36,WNW,302,0.0,0.0,93,0.00,,,0.00,,2013-02-09 10:21:00,
2013-02-09 05:32:00,20.0,18.0,30.37,WNW,302,0.0,0.0,93,0.00,,,0.00,,2013-02-09 10:32:00,
2013-02-09 05:42:00,20.0,18.0,30.37,WNW,302,0.0,0.0,93,0.00,,,0.00,,2013-02-09 10:42:00,
2013-02-09 05:52:00,20.0,18.0,30.37,WNW,302,0.0,0.0,93,0.00,,,0.00,,2013-02-09 10:52:00,
2013-02-09 06:01:00,19.0,17.0,30.36,East,93,1.0,2.0,93,0.00,,,0.00,,2013-02-09 11:01:00,
2013-02-09 06:11:00,19.0,17.0,30.36,East,93,1.0,2.0,93,0.00,,,0.00,,2013-02-09 11:11:00,
2013-02-09 06:22:00,19.0,17.0,30.37,East,93,0.0,2.0,93,0.00,,,0.00,,2013-02-09 11:22:00,
2013-02-09 06:32:00,19.0,17.0,30.37,East,93,0.0,1.0,93,0.00,,,0.00,,2013-02-09 11:32:00,
2013-02-09 06:42:00,19.0,17.0,30.37,East,93,0.0,1.0,93,0.00,,,0.00,,2013-02-09 11:42:00,
2013-02-09 06:52:00,18.0,16.0,30.37,East,93,1.0,1.0,93,0.00,,,0.00,,2013-02-09 11:52:00,
2013-02-09 07:02:00,19.0,17.0,30.37,ESE,116,2.0,3.0,93,0.00,,,0.00,,2013-02-09 12:02:00,
2013-02-09 07:11:00,19.0,17.0,30.37,ESE,116,2.0,3.0,93,0.00,,,0.00,,2013-02-09 12:11:00,
2013-02-09 07:22:00,19.0,17.0,30.37,ESE,115,3.0,5.0,92,0.00,,,0.00,,2013-02-09 12:22:00,
2013-02-09 07:32:00,19.0,17.0,30.37,ESE,117,3.0,5.0,90,0.00,,,0.00,,2013-02-09 12:32:00,
2013-02-09 07:42:00,19.0,17.0,30.37,ESE,117,3.0,5.0,90,0.00,,,0.00,,2013-02-09 12:42:00,
2013-02-09 07:53:00,20.0,17.0,30.37,SE,132,2.0,5.0,88,0.00,,,0.00,,2013-02-09 12:53:00,
2013-02-09 08:02:00,20.0,17.0,30.39,SE,141,1.0,5.0,88,0.00,,,0.00,,2013-02-09 13:02:00,
2013-02-09 08:11:00,20.0,17.0,30.39,SE,141,1.0,5.0,88,0.00,,,0.00,,2013-02-09 13:11:00,
2013-02-09 08:22:00,20.0,17.0,30.40,ESE,118,2.0,5.0,88,0.00,,,0.00,,2013-02-09 13:22:00,
2013-02-09 08:32:00,21.0,18.0,30.40,SE,128,2.0,4.0,87,0.00,,,0.00,,2013-02-09 13:32:00,
2013-02-09 08:42:00,21.0,18.0,30.40,SE,128,2.0,4.0,87,0.00,,,0.00,,2013-02-09 13:42:00,
2013-02-09 08:52:00,22.0,18.0,30.40,SE,124,4.0,5.0,86,0.00,,,0.00,,2013-02-09 13:52:00,
2013-02-09 09:01:00,22.0,18.0,30.40,ESE,111,4.0,7.0,85,0.00,,,0.00,,2013-02-09 14:01:00,
2013-02-09 09:11:00,22.0,18.0,30.40,ESE,111,4.0,7.0,85,0.00,,,0.00,,2013-02-09 14:11:00,
2013-02-09 09:21:00,23.0,19.0,30.40,SE,128,7.0,11.0,84,0.00,,,0.00,,2013-02-09 14:21:00,
2013-02-09 09:32:00,23.0,19.0,30.39,ESE,114,8.0,11.0,83,0.00,,,0.00,,2013-02-09 14:32:00,
2013-02-09 09:42:00,23.0,19.0,30.39,ESE,114,8.0,11.0,83,0.00,,,0.00,,2013-02-09 14:42:00,
2013-02-09 09:52:00,24.0,19.0,30.39,ESE,112,7.0,13.0,82,0.00,,,0.00,,2013-02-09 14:52:00,
2013-02-09 10:02:00,25.0,20.0,30.39,ESE,117,7.0,11.0,81,0.00,,,0.00,,2013-02-09 15:02:00,
2013-02-09 10:11:00,25.0,20.0,30.39,ESE,117,7.0,11.0,81,0.00,,,0.00,,2013-02-09 15:11:00,
2013-02-09 10:22:00,26.0,21.0,30.39,SSW,212,5.0,8.0,80,0.00,,,0.00,,2013-02-09 15:22:00,
2013-02-09 10:32:00,27.0,22.0,30.39,SSE,160,5.0,9.0,80,0.00,,,0.00,,2013-02-09 15:32:00,
2013-02-09 10:42:00,27.0,22.0,30.39,SSE,160,5.0,9.0,80,0.00,,,0.00,,2013-02-09 15:42:00,
2013-02-09 10:52:00,27.0,21.0,30.38,SE,146,8.0,12.0,77,0.00,,,0.00,,2013-02-09 15:52:00,
2013-02-09 11:01:00,27.0,21.0,30.38,SSE,162,7.0,11.0,77,0.00,,,0.00,,2013-02-09 16:01:00,
2013-02-09 11:11:00,27.0,21.0,30.38,SSE,162,7.0,11.0,77,0.00,,,0.00,,2013-02-09 16:11:00,
2013-02-09 11:22:00,28.0,21.0,30.38,SE,135,6.0,11.0,76,0.00,,,0.00,,2013-02-09 16:22:00,
2013-02-09 11:32:00,29.0,22.0,30.38,ESE,120,5.0,10.0,75,0.00,,,0.00,,2013-02-09 16:32:00,
2013-02-09 11:42:00,29.0,22.0,30.38,ESE,120,5.0,10.0,75,0.00,,,0.00,,2013-02-09 16:42:00,
2013-02-09 11:52:00,30.0,23.0,30.38,SSW,204,5.0,11.0,74,0.00,,,0.00,,2013-02-09 16:52:00,
2013-02-09 12:01:00,30.0,23.0,30.38,SE,135,7.0,11.0,74,0.00,,,0.00,,2013-02-09 17:01:00,
2013-02-09 12:11:00,30.0,23.0,30.38,SE,135,7.0,11.0,74,0.00,,,0.00,,2013-02-09 17:11:00,
2013-02-09 12:21:00,30.0,23.0,30.38,SE,130,7.0,10.0,74,0.00,,,0.00,,2013-02-09 17:21:00,
2013-02-09 12:32:00,31.0,24.0,30.38,South,185,6.0,11.0,75,0.00,,,0.00,,2013-02-09 17:32:00,
2013-02-09 12:42:00,31.0,24.0,30.38,South,185,6.0,11.0,75,0.00,,,0.00,,2013-02-09 17:42:00,
2013-02-09 12:52:00,31.0,24.0,30.37,SE,146,6.0,12.0,74,0.00,,,0.00,,2013-02-09 17:52:00,
2013-02-09 13:02:00,32.0,24.0,30.36,SE,142,7.0,12.0,73,0.00,,,0.00,,2013-02-09 18:02:00,
2013-02-09 13:12:00,32.0,24.0,30.36,SE,142,7.0,12.0,73,0.00,,,0.00,,2013-02-09 18:12:00,
2013-02-09 13:23:00,32.0,25.0,30.35,SE,124,6.0,14.0,74,0.00,,,0.00,,2013-02-09 18:23:00,
2013-02-09 13:32:00,32.0,24.0,30.34,SSW,203,9.0,14.0,73,0.00,,,0.00,,2013-02-09 18:32:00,
2013-02-09 13:42:00,32.0,24.0,30.34,SSW,203,9.0,14.0,73,0.00,,,0.00,,2013-02-09 18:42:00,
2013-02-09 13:52:00,33.0,25.0,30.34,South,173,8.0,10.0,73,0.00,,,0.00,,2013-02-09 18:52:00,
2013-02-09 14:01:00,33.0,25.0,30.33,SE,146,9.0,14.0,72,0.00,,,0.00,,2013-02-09 19:01:00,
2013-02-09 14:11:00,33.0,25.0,30.33,SE,146,9.0,14.0,72,0.00,,,0.00,,2013-02-09 19:11:00,
2013-02-09 14:22:00,33.0,25.0,30.32,SSE,160,8.0,14.0,71,0.00,,,0.00,,2013-02-09 19:22:00,
2013-02-09 14:32:00,34.0,26.0,30.30,SSE,153,8.0,15.0,71,0.00,,,0.00,,2013-02-09 19:32:00,
2013-02-09 14:42:00,34.0,26.0,30.30,SSE,153,8.0,15.0,71,0.00,,,0.00,,2013-02-09 19:42:00,
2013-02-09 14:52:00,34.0,26.0,30.30,SE,141,7.0,16.0,72,0.00,,,0.00,,2013-02-09 19:52:00,
2013-02-09 15:01:00,34.0,25.0,30.29,SSE,147,11.0,15.0,69,0.00,,,0.00,,2013-02-09 20:01:00,
2013-02-09 15:11:00,34.0,25.0,30.29,SSE,147,11.0,15.0,69,0.00,,,0.00,,2013-02-09 20:11:00,
2013-02-09 15:21:00,34.0,25.0,30.28,South,175,9.0,15.0,69,0.00,,,0.00,,2013-02-09 20:21:00,
2013-02-09 15:32:00,34.0,25.0,30.28,South,182,9.0,15.0,70,0.00,,,0.00,,2013-02-09 20:32:00,
2013-02-09 15:42:00,34.0,25.0,30.28,South,182,9.0,15.0,70,0.00,,,0.00,,2013-02-09 20:42:00,
2013-02-09 15:52:00,34.0,25.0,30.28,SSE,158,9.0,15.0,70,0.00,,,0.00,,2013-02-09 20:52:00,
2013-02-09 16:02:00,34.0,26.0,30.28,SE,137,8.0,15.0,72,0.00,,,0.00,,2013-02-09 21:02:00,
2013-02-09 16:12:00,34.0,26.0,30.28,SE,137,8.0,15.0,72,0.00,,,0.00,,2013-02-09 21:12:00,
2013-02-09 16:21:00,33.0,25.0,30.28,SE,124,9.0,14.0,72,0.00,,,0.00,,2013-02-09 21:21:00,
2013-02-09 16:32:00,34.0,26.0,30.28,SE,140,9.0,15.0,72,0.00,,,0.00,,2013-02-09 21:32:00,
2013-02-09 16:42:00,34.0,26.0,30.28,SE,140,9.0,15.0,72,0.00,,,0.00,,2013-02-09 21:42:00,
2013-02-09 16:52:00,34.0,26.0,30.28,SE,124,10.0,13.0,71,0.00,,,0.00,,2013-02-09 21:52:00,
2013-02-09 17:01:00,34.0,26.0,30.28,SE,140,7.0,13.0,73,0.00,,,0.00,,2013-02-09 22:01:00,
2013-02-09 17:11:00,34.0,26.0,30.28,SE,140,7.0,13.0,73,0.00,,,0.00,,2013-02-09 22:11:00,
2013-02-09 17:22:00,34.0,26.0,30.27,SE,126,7.0,11.0,73,0.00,,,0.00,,2013-02-09 22:22:00,
2013-02-09 17:32:00,34.0,27.0,30.27,SE,136,6.0,11.0,74,0.00,,,0.00,,2013-02-09 22:32:00,
2013-02-09 17:42:00,34.0,27.0,30.27,SE,136,6.0,11.0,74,0.00,,,0.00,,2013-02-09 22:42:00,
2013-02-09 17:52:00,33.0,26.0,30.26,SE,140,8.0,12.0,74,0.00,,,0.00,,2013-02-09 22:52:00,
2013-02-09 18:02:00,33.0,26.0,30.26,SE,142,6.0,11.0,75,0.00,,,0.00,,2013-02-09 23:02:00,
2013-02-09 18:11:00,33.0,26.0,30.26,SE,142,6.0,11.0,75,0.00,,,0.00,,2013-02-09 23:11:00,
2013-02-09 18:22:00,33.0,26.0,30.25,ESE,117,5.0,9.0,76,0.00,,,0.00,,2013-02-09 23:22:00,
2013-02-09 18:32:00,32.0,26.0,30.24,SE,126,5.0,8.0,77,0.00,,,0.00,,2013-02-09 23:32:00,
2013-02-09 18:42:00,32.0,26.0,30.24,SE,126,5.0,8.0,77,0.00,,,0.00,,2013-02-09 23:42:00,
2013-02-09 18:52:00,32.0,26.0,30.24,SE,128,5.0,9.0,78,0.00,,,0.00,,2013-02-09 23:52:00,
2013-02-09 19:02:00,31.0,25.0,30.24,SE,140,6.0,10.0,79,0.00,,,0.00,,2013-02-10 00:02:00,
2013-02-09 19:12:00,31.0,25.0,30.24,SE,140,6.0,10.0,79,0.00,,,0.00,,2013-02-10 00:12:00,
2013-02-09 19:22:00,31.0,25.0,30.24,ESE,119,4.0,9.0,79,0.00,,,0.00,,2013-02-10 00:22:00,
2013-02-09 19:32:00,31.0,26.0,30.24,ESE,114,6.0,12.0,80,0.00,,,0.00,,2013-02-10 00:32:00,
2013-02-09 19:42:00,31.0,26.0,30.24,ESE,114,6.0,12.0,80,0.00,,,0.00,,2013-02-10 00:42:00,
2013-02-09 19:52:00,30.0,25.0,30.23,ESE,112,6.0,10.0,80,0.00,,,0.00,,2013-02-10 00:52:00,
2013-02-09 20:01:00,30.0,25.0,30.23,ESE,121,8.0,11.0,80,0.00,,,0.00,,2013-02-10 01:01:00,
2013-02-09 20:12:00,30.0,25.0,30.23,ESE,121,8.0,11.0,80,0.00,,,0.00,,2013-02-10 01:12:00,
2013-02-09 20:22:00,30.0,25.0,30.23,ESE,111,8.0,13.0,80,0.00,,,0.00,,2013-02-10 01:22:00,
2013-02-09 20:32:00,30.0,25.0,30.24,SE,140,6.0,11.0,80,0.00,,,0.00,,2013-02-10 01:32:00,
2013-02-09 20:42:00,30.0,25.0,30.24,SE,140,6.0,11.0,80,0.00,,,0.00,,2013-02-10 01:42:00,
2013-02-09 20:52:00,30.0,25.0,30.24,SE,124,6.0,11.0,80,0.00,,,0.00,,2013-02-10 01:52:00,
2013-02-09 21:01:00,30.0,25.0,30.23,SE,135,7.0,11.0,80,0.00,,,0.00,,2013-02-10 02:01:00,
2013-02-09 21:11:00,30.0,25.0,30.23,SE,135,7.0,11.0,80,0.00,,,0.00,,2013-02-10 02:11:00,
2013-02-09 21:22:00,30.0,25.0,30.22,SE,131,8.0,12.0,80,0.00,,,0.00,,2013-02-10 02:22:00,
2013-02-09 21:32:00,30.0,25.0,30.22,SE,130,8.0,12.0,80,0.00,,,0.00,,2013-02-10 02:32:00,
2013-02-09 21:42:00,30.0,25.0,30.22,SE,130,8.0,12.0,80,0.00,,,0.00,,2013-02-10 02:42:00,
2013-02-09 21:52:00,30.0,25.0,30.22,ESE,123,9.0,14.0,80,0.00,,,0.00,,2013-02-10 02:52:00,
2013-02-09 22:02:00,30.0,24.0,30.22,SE,130,8.0,12.0,79,0.00,,,0.00,,2013-02-10 03:02:00,
2013-02-09 22:11:00,30.0,24.0,30.22,SE,130,8.0,12.0,79,0.00,,,0.00,,2013-02-10 03:11:00,
2013-02-09 22:22:00,30.0,24.0,30.22,SE,124,8.0,12.0,79,0.00,,,0.00,,2013-02-10 03:22:00,
2013-02-09 22:32:00,30.0,24.0,30.22,ESE,123,7.0,11.0,78,0.00,,,0.00,,2013-02-10 03:32:00,
2013-02-09 22:42:00,30.0,24.0,30.22,ESE,123,7.0,11.0,78,0.00,,,0.00,,2013-02-10 03:42:00,
2013-02-09 22:52:00,31.0,25.0,30.21,ESE,117,9.0,13.0,77,0.00,,,0.00,,2013-02-10 03:52:00,
2013-02-09 23:01:00,31.0,25.0,30.20,SE,133,9.0,13.0,77,0.00,,,0.00,,2013-02-10 04:01:00,
2013-02-09 23:11:00,31.0,25.0,30.20,SE,133,9.0,13.0,77,0.00,,,0.00,,2013-02-10 04:11:00,
2013-02-09 23:22:00,31.0,25.0,30.19,SE,126,8.0,14.0,77,0.00,,,0.00,,2013-02-10 04:22:00,
2013-02-09 23:32:00,31.0,24.0,30.19,ESE,117,9.0,13.0,76,0.00,,,0.00,,2013-02-10 04:32:00,
2013-02-09 23:42:00,31.0,24.0,30.19,ESE,117,9.0,13.0,76,0.00,,,0.00,,2013-02-10 04:42:00,
2013-02-09 23:52:00,31.0,24.0,30.18,SE,127,7.0,15.0,74,0.00,,,0.00,,2013-02-10 04:52:00,